Clarion, IA

10:53 PM CST on November 18, 2019 (GMT -0600)
Clarion Municipal

Weather History for KCAV - September, 2019

Change the Weather History Date:

Friday, September 13, 2019

  Actual Average Record
Temperature  
Mean Temperature 60 °F -  
Max Temperature 69 °F 75 °F 95 °F (2000)
Min Temperature 51 °F 52 °F 32 °F (1974)
Degree Days  
Heating Degree Days 5    
Growing Degree Days 10 (Base 50)    
Moisture  
Dew Point 53 °F    
Average Humidity 82    
Maximum Humidity 100    
Minimum Humidity 56    
Precipitation  
Precipitation 0.00 in - - ()
Sea Level Pressure  
Sea Level Pressure 30.06 in    
Wind  
Wind Speed 12 mph (West)    
Max Wind Speed 22 mph    
Max Gust Speed 30 mph    
Visibility 10 miles    
Events      
Averages and records for this station are not official NWS values.
T = Trace of Precipitation, MM = Missing Value Source: NWS Daily Summary

Daily Weather History Graph

Daily Weather History Graph

Search for Another Location

Airport or City:

Astronomy

Sep. 13, 2019 Rise Set
Actual Time 6:52 AM CDT 7:28 PM CDT
Civil Twilight 6:23 AM CDT 7:57 PM CDT
Nautical Twilight 5:50 AM CDT 8:30 PM CDT
Astronomical Twilight 5:15 AM CDT 9:05 PM CDT
Moon 7:44 PM CDT (9/13) 6:07 AM CDT (9/13)
Length of Visible Light 13h 33m
Length of Day
12h 36m
Full, 100% of the Moon is Illuminated
Sep 13
Full
Sep 13
Full
Sep 21
Last Quarter
Sep 28
New
Oct 5
First Quarter

Hourly Weather History & Observations

Time (CDT) Temp. Dew Point Humidity Pressure Visibility Wind Dir Wind Speed Gust Speed Precip Events Conditions
12:15 AM 59.0 °F 59.0 °F 100% 29.94 in 10.0 mi WSW 6.9 mph - N/A   Partly Cloudy
12:35 AM 59.0 °F 59.0 °F 100% 29.94 in 10.0 mi WSW 9.2 mph - N/A   Clear
12:55 AM 60.8 °F 59.0 °F 94% 29.94 in 10.0 mi West 11.5 mph 17.3 mph N/A   Clear
1:15 AM 59.0 °F 57.2 °F 94% 29.94 in 10.0 mi West 10.4 mph - N/A   Clear
1:35 AM 59.0 °F 57.2 °F 94% 29.94 in 10.0 mi WSW 8.1 mph - N/A   Clear
1:55 AM 59.0 °F 57.2 °F 94% 29.94 in 10.0 mi WSW 10.4 mph 17.3 mph N/A   Clear
2:15 AM 59.0 °F 57.2 °F 94% 29.94 in - WSW 10.4 mph - N/A   Unknown
2:35 AM 59.0 °F 57.2 °F 94% 29.94 in 10.0 mi WSW 8.1 mph - N/A   Partly Cloudy
2:55 AM 59.0 °F 57.2 °F 94% 29.95 in 10.0 mi West 11.5 mph - N/A   Overcast
3:15 AM 59.0 °F 59.0 °F 100% 29.95 in 10.0 mi West 13.8 mph - N/A   Overcast
3:35 AM 59.0 °F 59.0 °F 100% 29.96 in 10.0 mi West 10.4 mph - N/A   Overcast
3:55 AM 59.0 °F 57.2 °F 94% 29.96 in 10.0 mi West 13.8 mph - N/A   Mostly Cloudy
4:15 AM 57.2 °F 55.4 °F 94% 29.97 in 10.0 mi West 11.5 mph 20.7 mph N/A   Scattered Clouds
4:55 AM 55.4 °F 55.4 °F 100% 29.97 in 10.0 mi West 6.9 mph - N/A   Partly Cloudy
5:15 AM 55.4 °F 55.4 °F 100% 29.98 in 10.0 mi WSW 8.1 mph - N/A   Clear
5:35 AM 55.4 °F 55.4 °F 100% 29.98 in 10.0 mi West 12.7 mph - N/A   Partly Cloudy
5:55 AM 55.4 °F 53.6 °F 94% 29.99 in 10.0 mi West 11.5 mph - N/A   Clear
6:15 AM 55.4 °F 51.8 °F 88% 30.00 in 10.0 mi West 17.3 mph - N/A   Clear
6:35 AM 53.6 °F 51.8 °F 94% 30.01 in 10.0 mi WNW 11.5 mph 18.4 mph N/A   Scattered Clouds
6:55 AM 53.6 °F 51.8 °F 94% 30.01 in 10.0 mi WNW 15.0 mph 23.0 mph N/A   Scattered Clouds
7:15 AM 53.6 °F 51.8 °F 94% 30.02 in 10.0 mi WNW 13.8 mph - N/A   Clear
7:35 AM 53.6 °F 50.0 °F 88% 30.02 in 10.0 mi West 17.3 mph - N/A   Clear
7:55 AM 53.6 °F 50.0 °F 88% 30.04 in 10.0 mi West 13.8 mph 20.7 mph N/A   Clear
8:15 AM 55.4 °F 50.0 °F 82% 30.05 in 10.0 mi West 15.0 mph - N/A   Clear
8:35 AM 55.4 °F 50.0 °F 82% 30.06 in 10.0 mi West 18.4 mph 24.2 mph N/A   Partly Cloudy
8:55 AM 57.2 °F 50.0 °F 77% 30.07 in 10.0 mi West 16.1 mph 21.9 mph N/A   Mostly Cloudy
9:15 AM 57.2 °F 50.0 °F 77% 30.07 in 10.0 mi WNW 21.9 mph 29.9 mph N/A   Overcast
9:35 AM 57.2 °F 50.0 °F 77% 30.09 in 10.0 mi WNW 21.9 mph 27.6 mph N/A   Overcast
9:55 AM 59.0 °F 51.8 °F 77% 30.09 in 10.0 mi WNW 17.3 mph - N/A   Overcast
10:15 AM 59.0 °F 50.0 °F 72% 30.10 in 10.0 mi West 19.6 mph 25.3 mph N/A   Overcast
10:35 AM 59.0 °F 50.0 °F 72% 30.10 in 10.0 mi West 19.6 mph 26.5 mph N/A   Overcast
10:55 AM 60.8 °F 50.0 °F 68% 30.10 in 10.0 mi West 21.9 mph 27.6 mph N/A   Overcast
11:15 AM 62.6 °F 50.0 °F 63% 30.10 in 10.0 mi West 20.7 mph 29.9 mph N/A   Mostly Cloudy
11:35 AM 62.6 °F 51.8 °F 68% 30.11 in 10.0 mi West 16.1 mph 25.3 mph N/A   Mostly Cloudy
12:15 PM 62.6 °F 51.8 °F 68% 30.11 in 10.0 mi West 18.4 mph - N/A   Overcast
12:35 PM 64.4 °F 51.8 °F 64% 30.11 in 10.0 mi West 21.9 mph 29.9 mph N/A   Overcast
12:55 PM 64.4 °F 51.8 °F 64% 30.11 in 10.0 mi West 17.3 mph 26.5 mph N/A   Mostly Cloudy
1:15 PM 66.2 °F 53.6 °F 64% 30.11 in 10.0 mi West 19.6 mph 25.3 mph N/A   Mostly Cloudy
1:35 PM 66.2 °F 51.8 °F 60% 30.10 in 10.0 mi West 18.4 mph 28.8 mph N/A   Mostly Cloudy
1:55 PM 68.0 °F 53.6 °F 60% 30.10 in 10.0 mi West 19.6 mph 26.5 mph N/A   Mostly Cloudy
2:15 PM 68.0 °F 53.6 °F 60% 30.10 in 10.0 mi West 21.9 mph - N/A   Mostly Cloudy
2:35 PM 66.2 °F 53.6 °F 64% 30.10 in 10.0 mi West 18.4 mph 25.3 mph N/A   Scattered Clouds
2:55 PM 68.0 °F 53.6 °F 60% 30.09 in 10.0 mi West 17.3 mph 25.3 mph N/A   Partly Cloudy
3:15 PM 68.0 °F 53.6 °F 60% 30.10 in 10.0 mi West 18.4 mph 26.5 mph N/A   Partly Cloudy
3:35 PM 69.8 °F 53.6 °F 56% 30.09 in 10.0 mi West 19.6 mph - N/A   Partly Cloudy
3:55 PM 68.0 °F 53.6 °F 60% 30.09 in 10.0 mi West 17.3 mph 27.6 mph N/A   Partly Cloudy
4:15 PM 69.8 °F 53.6 °F 56% 30.10 in 10.0 mi West 16.1 mph 24.2 mph N/A   Partly Cloudy
4:55 PM 68.0 °F 51.8 °F 56% 30.10 in 10.0 mi WNW 17.3 mph - N/A   Clear
5:15 PM 68.0 °F 51.8 °F 56% 30.10 in 10.0 mi West 17.3 mph 23.0 mph N/A   Partly Cloudy
5:35 PM 68.0 °F 51.8 °F 56% 30.10 in 10.0 mi West 16.1 mph - N/A   Partly Cloudy
5:55 PM 68.0 °F 51.8 °F 56% 30.10 in 10.0 mi WNW 13.8 mph - N/A   Clear
6:15 PM 68.0 °F 53.6 °F 60% 30.10 in 10.0 mi WNW 11.5 mph 18.4 mph N/A   Clear
6:35 PM 66.2 °F 53.6 °F 64% 30.11 in 10.0 mi West 8.1 mph - N/A   Clear
6:55 PM 64.4 °F 55.4 °F 73% 30.11 in 10.0 mi West 5.8 mph - N/A   Clear
7:15 PM 62.6 °F 55.4 °F 77% 30.11 in 10.0 mi West 3.5 mph - N/A   Clear
7:35 PM 60.8 °F 55.4 °F 82% 30.11 in 10.0 mi West 4.6 mph - N/A   Clear
7:55 PM 57.2 °F 55.4 °F 94% 30.12 in 10.0 mi Calm Calm - N/A   Clear
8:15 PM 57.2 °F 55.4 °F 94% 30.12 in 10.0 mi Calm Calm - N/A   Clear
8:35 PM 55.4 °F 53.6 °F 94% 30.13 in 10.0 mi SSW 3.5 mph - N/A   Clear
8:55 PM 55.4 °F 53.6 °F 94% 30.12 in 10.0 mi South 3.5 mph - N/A   Clear
9:15 PM 53.6 °F 53.6 °F 100% 30.13 in 10.0 mi South 4.6 mph - N/A   Clear
9:35 PM 53.6 °F 51.8 °F 94% 30.13 in 10.0 mi South 3.5 mph - N/A   Clear
9:55 PM 53.6 °F 51.8 °F 94% 30.13 in 10.0 mi South 3.5 mph - N/A   Clear
10:15 PM 51.8 °F 51.8 °F 100% 30.14 in 10.0 mi South 6.9 mph - N/A   Clear
10:35 PM 51.8 °F 51.8 °F 100% 30.14 in 10.0 mi South 3.5 mph - N/A   Clear
10:55 PM 51.8 °F 51.8 °F 100% 30.14 in 10.0 mi Calm Calm - N/A   Clear
11:15 PM 51.8 °F 51.8 °F 100% 30.14 in 10.0 mi South 3.5 mph - N/A   Clear
11:35 PM 51.8 °F 51.8 °F 100% 30.14 in 10.0 mi South 3.5 mph - N/A   Clear
11:55 PM 51.8 °F 50.0 °F 94% 30.14 in 10.0 mi South 4.6 mph - N/A   Clear